P/2010 H2 ( Vales ) 2025

Japanese version
Home page
Updated on January 6, 2024

---------------------------------------------------------------------

* Profile

* Orbital Elements

Epoch 2025 Mar. 26.0 TT = JDT 2460760.5                                         
T 2025 Mar. 10.01320 TT                                 Rudenko                 
q   3.0758305            (2000.0)            P               Q                  
n   0.13129977     Peri.  128.08463     -0.95525146     +0.19540970             
a   3.8337760      Node    64.18825     -0.28197278     -0.82837786             
e   0.1977021      Incl.   14.28043     +0.08936437     -0.52498112             
P   7.51                                                                        
From 1642 observations 2010 Apr. 16-Sept. 4, mean residual 0".6.                

* Magnitudes Graph

        H = 16.0  G = 0.15

---------------------------------------------------------------------

The orbital elements are published on M.P.E.C. 2020-R04.
The magnitudes graphs are made with Comet for Windows.

---------------------------------------------------------------------

Copyright(C) Seiichi Yoshida (comet@aerith.net). All rights reserved.